EW6709 Weather Reports


time (UTC)temp
C
wind
direction
speed
KPH
gust
KPH
rain 1hr
cm
rain 24hr
cm
rain mn
cm
humidity
%
barometer
mb
20260505080032 13 158 0.0 0.0 0.00 0.00 0.00 76 1016.2
20260505074534 14 158 0.0 0.0 0.00 0.00 0.00 76 1016.1
20260505073037 14 159 0.0 0.0 0.00 0.00 0.00 74 1015.9
20260505071523 15 159 0.0 0.0 0.00 0.00 0.00 73 1015.9
20260505070034 15 160 0.0 1.6 0.00 0.00 0.00 72 1015.9
20260505064519 15 165 0.0 3.2 0.00 0.00 0.00 71 1015.8
20260505063021 15 204 0.0 0.0 0.00 0.00 0.00 71 1015.8
20260505061522 16 161 0.0 1.6 0.00 0.00 0.00 70 1015.7
20260505060014 16 117 0.0 1.6 0.00 0.00 0.00 70 1015.8
20260505054512 16 186 0.0 1.6 0.00 0.00 0.00 69 1015.8
20260505053015 16 187 0.0 1.6 0.00 0.00 0.00 68 1015.9
20260505051513 16 253 0.0 6.4 0.00 0.00 0.00 68 1016.1
20260505041502 17 165 0.0 0.0 0.00 0.00 0.00 67 1016.0
20260505040101 17 136 0.0 6.4 0.00 0.00 0.00 67 1016.0
20260505034559 17 175 0.0 1.6 0.00 0.00 0.00 66 1016.1
20260505034501 17 175 0.0 1.6 0.00 0.00 0.00 66 1016.0
20260505033059 17 185 0.0 3.2 0.00 0.00 0.00 66 1016.0
20260505031607 18 160 0.0 11.3 0.00 0.00 0.00 64 1016.0
20260505024605 18 185 0.0 4.8 0.00 0.00 0.00 63 1016.0
20260505023057 18 292 0.0 3.2 0.00 0.00 0.00 61 1016.0
20260505021559 19 229 0.0 4.8 0.00 0.00 0.00 58 1015.8
20260505020055 19 167 0.0 4.8 0.00 0.00 0.00 53 1015.7
20260505014608 19 175 0.0 1.6 0.00 0.00 0.00 50 1015.5
20260505013054 20 156 0.0 0.0 0.00 0.00 0.00 49 1015.2
20260505011604 20 165 0.0 1.6 0.00 0.00 0.00 48 1015.0
20260505010054 20 161 0.0 1.6 0.00 0.00 0.00 47 1014.9
20260505004552 21 254 0.0 1.6 0.00 0.00 0.00 46 1014.5
20260505003053 21 159 0.0 0.0 0.00 0.00 0.00 45 1014.5
20260505001552 22 159 0.0 1.6 0.00 0.00 0.00 42 1014.3
20260505000106 22 163 0.0 1.6 0.00 0.00 0.00 41 1014.3
20260504234551 23 234 0.0 1.6 0.00 0.00 0.00 40 1014.1
20260504233106 23 176 0.0 1.6 0.00 0.00 0.00 38 1013.9
20260504231550 24 174 0.0 1.6 0.00 0.00 0.00 36 1013.8
20260504230048 25 195 0.0 8.0 0.00 0.00 0.00 32 1013.7
20260504224553 25 237 0.0 17.7 0.00 0.00 0.00 32 1013.7
20260504223100 25 241 0.0 3.2 0.00 0.00 0.00 32 1013.7
20260504221547 25 220 0.0 12.9 0.00 0.00 0.00 32 1013.7
20260504220045 26 193 0.0 12.9 0.00 0.00 0.00 31 1013.8
20260504214546 26 261 1.6 14.5 0.00 0.00 0.00 31 1013.9
20260504213055 25 236 1.6 6.4 0.00 0.00 0.00 31 1013.9
20260504211543 26 235 1.6 20.9 0.00 0.00 0.00 32 1013.9
20260504210043 26 250 1.6 11.3 0.00 0.00 0.00 32 1013.9
20260504204546 26 217 1.6 14.5 0.00 0.00 0.00 32 1014.1
20260504203049 26 196 0.0 16.1 0.00 0.00 0.00 34 1014.2
20260504201539 25 259 0.0 8.0 0.00 0.00 0.00 34 1014.3
20260504200037 25 234 3.2 16.1 0.00 0.00 0.00 34 1014.5
20260504194536 25 242 1.6 11.3 0.00 0.00 0.00 33 1014.6
20260504193033 25 273 0.0 12.9 0.00 0.00 0.00 37 1014.6
20260504191531 25 188 0.0 8.0 0.00 0.00 0.00 36 1014.8
20260504190029 25 221 0.0 6.4 0.00 0.00 0.00 35 1015.2
20260504184527 24 224 1.6 17.7 0.00 0.00 0.00 35 1015.4
20260504183024 24 236 0.0 4.8 0.00 0.00 0.00 35 1015.4
20260504181521 24 221 1.6 6.4 0.00 0.00 0.00 35 1015.6
20260504180019 23 234 0.0 11.3 0.00 0.00 0.00 38 1015.7
20260504174517 23 251 1.6 8.0 0.00 0.00 0.00 38 1015.8
20260504173013 23 167 0.0 6.4 0.00 0.00 0.00 45 1016.2
20260504171510 22 223 1.6 14.5 0.00 0.00 0.00 42 1016.4
20260504081520 7 209 0.0 0.0 0.00 0.00 0.00 84 1018.1